Tracking 27420 objects as of 28-May-2023
HD Live streaming from Space Station
objects crossing your sky now

STARLINK-5352

Track STARLINK-5352 now!
10-day predictions
STARLINK-5352 is classified as:


NORAD ID: 56426
Int'l Code: 2023-061BE
Perigee: 360.9 km
Apogee: 363.5 km
Inclination: 43.0 °
Period: 91.6 minutes
Semi major axis: 6733 km
RCS: Unknown
Launch date: May 4, 2023
Source: United States (US)
Launch site: AIR FORCE EASTERN TEST RANGE (AFETR)
Your satellite tracking list
Your tracking list is empty




NASA's NSSDC Master Catalog

Two Line Element Set (TLE):
1 56426U 23061BE  23148.21389836  .00001963  00000-0  18420-4 0  9991
2 56426  42.9984 327.2597 0001910 268.1498  91.9151 15.71351818  3778
Source of the keplerian elements: AFSPC